Date String (YYYY-MM-DD hh:mm:ss) UTC,Instrument flags,Ambient pressure (hPa),Sample flow (lpm),Bypass flow (lpm),Sample temperature (°C),Ambient temperature (°C),ASC tube jacket temperature (°C),LED temperature (°C),Box temperature (°C),Sample RH (%),Span deviation,Mass concentration (μg/m³),Mass concentration (μg/m³),Mass concentration (μg/m³)
DateTimeUTC,F1_M11,P_M11,Q1_M11,Q2_M11,T1_M11,T2_M11,T3_M11,T4_M11,T5_M11,U1_M11,ZSPAN_M11,X2_M11,X0_M11,X1_M11
2021-11-23 20:00:00,,0816.6,4.99,0.00,28.8,27.8,00.0,37.7,30.5,04.0,0000.0,0000.61,0001.70,0000.41
2021-11-23 20:01:00,,0816.5,5.00,0.00,28.8,27.8,00.0,37.7,30.5,04.0,0000.0,0000.61,0001.65,0000.41
2021-11-23 20:02:00,,0816.5,5.00,0.00,28.8,27.8,00.0,37.7,30.5,03.9,0000.0,0000.57,0001.56,0000.40
2021-11-23 20:03:00,,0816.4,5.00,0.00,28.8,27.8,00.0,37.7,30.5,03.9,0000.0,0000.53,0001.47,0000.40
2021-11-23 20:04:00,,0816.5,5.01,0.00,28.8,27.8,00.0,37.7,30.6,03.8,0000.0,0000.54,0001.48,0000.40
2021-11-23 20:05:00,,0816.5,5.00,0.00,28.8,27.8,00.0,37.7,30.6,03.8,0000.0,0000.56,0001.55,0000.40
2021-11-23 20:06:00,,0816.5,4.99,0.00,28.8,27.8,00.0,37.8,30.6,03.9,0000.0,0000.55,0000.98,0000.40
2021-11-23 20:07:00,,0816.4,5.01,0.00,28.8,27.8,00.0,37.8,30.5,03.8,0000.0,0000.57,0001.01,0000.41
2021-11-23 20:08:00,,0816.4,4.98,0.00,28.8,27.9,00.0,37.8,30.5,03.9,0000.0,0000.58,0000.97,0000.41
2021-11-23 20:09:00,,0816.4,5.01,0.00,28.8,27.9,00.0,37.8,30.6,03.9,0000.0,0000.60,0001.05,0000.41
2021-11-23 20:10:00,,0816.3,5.00,0.00,28.8,27.9,00.0,37.8,30.5,03.9,0000.0,0000.63,0001.14,0000.42
2021-11-23 20:11:00,,0816.3,5.00,0.00,28.8,27.9,00.0,37.8,30.5,04.0,0000.0,0000.66,0001.21,0000.43
2021-11-23 20:12:00,,0816.3,5.00,0.00,28.8,27.9,00.0,37.8,30.5,03.9,0000.0,0000.67,0001.21,0000.44
2021-11-23 20:13:00,,0816.3,5.02,0.00,28.8,27.9,00.0,37.8,30.6,03.9,0000.0,0000.68,0001.21,0000.46
2021-11-23 20:14:00,,0816.4,4.99,0.00,28.8,27.9,00.0,37.8,30.5,03.9,0000.0,0000.69,0001.22,0000.47
2021-11-23 20:15:00,,0816.3,5.00,0.00,28.8,27.9,00.0,37.8,30.5,03.9,0000.0,0000.68,0001.20,0000.48
2021-11-23 20:16:00,,0816.2,5.01,0.00,28.8,27.9,00.0,37.8,30.5,04.0,0000.0,0000.66,0001.14,0000.48
2021-11-23 20:17:00,,0816.2,4.99,0.00,28.8,27.9,00.0,37.8,30.5,04.0,0000.0,0000.64,0001.09,0000.47
2021-11-23 20:18:00,,0816.1,5.01,0.00,28.8,27.9,00.0,37.8,30.5,04.0,0000.0,0000.62,0001.06,0000.46
2021-11-23 20:19:00,,0816.3,5.00,0.00,28.8,27.9,00.0,37.8,30.6,04.0,0000.0,0000.64,0001.08,0000.47
2021-11-23 20:20:00,,0816.2,4.99,0.00,28.8,27.9,00.0,37.8,30.5,04.0,0000.0,0000.63,0001.09,0000.47
2021-11-23 20:21:00,,0816.0,5.02,0.00,28.8,27.9,00.0,37.8,30.6,04.1,0000.0,0000.61,0001.03,0000.47
2021-11-23 20:22:00,,0816.2,4.98,0.00,28.8,27.8,00.0,37.8,30.6,04.2,0000.0,0000.63,0001.08,0000.48
2021-11-23 20:23:00,,0816.2,5.01,0.00,28.8,27.8,00.0,37.8,30.6,04.1,0000.0,0000.62,0001.59,0000.48
2021-11-23 20:24:00,,0816.3,5.01,0.00,28.8,27.9,00.0,37.8,30.5,04.1,0000.0,0000.61,0002.71,0000.47
2021-11-23 20:25:00,,0816.3,4.99,0.00,28.8,27.8,00.0,37.8,30.5,04.1,0000.0,0000.65,0002.78,0000.47
2021-11-23 20:26:00,,0816.3,5.01,0.00,28.8,27.8,00.0,37.8,30.5,04.1,0000.0,0000.69,0002.99,0000.46
2021-11-23 20:27:00,,0816.3,4.99,0.00,28.8,27.8,00.0,37.8,30.5,04.2,0000.0,0000.73,0003.15,0000.47
2021-11-23 20:28:00,,0816.3,5.00,0.00,28.8,27.8,00.0,37.8,30.4,04.2,0000.0,0000.75,0003.20,0000.47
2021-11-23 20:29:00,,0816.3,5.01,0.00,28.8,27.8,00.0,37.8,30.4,04.2,0000.0,0000.74,0003.18,0000.47
2021-11-23 20:30:00,,0816.3,5.01,0.00,28.7,27.8,00.0,37.8,30.4,04.2,0000.0,0000.75,0003.31,0000.47
2021-11-23 20:31:00,,0816.2,5.00,0.00,28.8,27.8,00.0,37.8,30.4,04.2,0000.0,0000.75,0003.28,0000.47
2021-11-23 20:32:00,,0816.2,4.99,0.00,28.7,27.8,00.0,37.8,30.4,04.3,0000.0,0000.76,0003.39,0000.46
2021-11-23 20:33:00,,0816.2,5.01,0.00,28.7,27.8,00.0,37.8,30.4,04.2,0000.0,0000.76,0003.43,0000.46
2021-11-23 20:34:00,,0816.2,5.00,0.00,28.8,27.8,00.0,37.8,30.5,04.2,0000.0,0000.79,0002.90,0000.45
2021-11-23 20:35:00,,0816.2,5.01,0.00,28.8,27.8,00.0,37.8,30.4,04.2,0000.0,0000.82,0001.94,0000.45
2021-11-23 20:36:00,,0816.2,5.00,0.00,28.8,27.8,00.0,37.8,30.5,04.3,0000.0,0000.81,0002.13,0000.45
2021-11-23 20:37:00,,0816.3,5.00,0.00,28.7,27.8,00.0,37.8,30.5,04.3,0000.0,0000.78,0001.93,0000.45
2021-11-23 20:38:00,,0816.2,5.01,0.00,28.8,27.8,00.0,37.8,30.5,04.3,0000.0,0000.74,0001.76,0000.45
2021-11-23 20:39:00,,0816.0,5.00,0.00,28.7,27.8,00.0,37.8,30.5,04.3,0000.0,0000.77,0001.90,0000.45
2021-11-23 20:40:00,,0816.0,4.99,0.00,28.7,27.8,00.0,37.8,30.5,04.4,0000.0,0000.80,0002.07,0000.45
2021-11-23 20:41:00,,0816.1,5.00,0.00,28.7,27.8,00.0,37.8,30.5,04.4,0000.0,0000.80,0002.65,0000.45
2021-11-23 20:42:00,,0816.3,4.99,0.00,28.7,27.8,00.0,37.8,30.5,04.6,0000.0,0000.80,0003.06,0000.46
2021-11-23 20:43:00,,0816.3,5.00,0.00,28.7,27.8,00.0,37.8,30.4,04.6,0000.0,0000.79,0002.94,0000.46
2021-11-23 20:44:00,,0816.3,4.99,0.00,28.7,27.7,00.0,37.8,30.3,04.5,0000.0,0000.80,0003.16,0000.46
2021-11-23 20:45:00,,0816.2,4.99,0.00,28.7,27.7,00.0,37.8,30.4,04.4,0000.0,0000.77,0003.38,0000.46
2021-11-23 20:46:00,,0816.2,5.00,0.00,28.7,27.8,00.0,37.8,30.4,04.4,0000.0,0000.76,0003.67,0000.46
2021-11-23 20:47:00,,0816.2,5.00,0.00,28.7,27.7,00.0,37.7,30.5,04.4,0000.0,0000.73,0003.42,0000.45
2021-11-23 20:48:00,,0816.3,5.00,0.00,28.7,27.7,00.0,37.8,30.4,04.5,0000.0,0000.75,0003.51,0000.45
2021-11-23 20:49:00,,0816.3,5.02,0.00,28.7,27.7,00.0,37.8,30.5,04.5,0000.0,0000.77,0003.60,0000.46
2021-11-23 20:50:00,,0816.3,4.99,0.00,28.7,27.7,00.0,37.7,30.4,04.4,0000.0,0000.75,0003.46,0000.46
2021-11-23 20:51:00,,0816.1,5.00,0.00,28.7,27.7,00.0,37.7,30.3,04.5,0000.0,0000.74,0003.38,0000.47
2021-11-23 20:52:00,,0816.0,5.00,0.00,28.7,27.7,00.0,37.7,30.4,04.5,0000.0,0000.73,0002.66,0000.47
2021-11-23 20:53:00,,0816.1,5.00,0.00,28.7,27.7,00.0,37.7,30.4,04.6,0000.0,0000.73,0002.28,0000.47
2021-11-23 20:54:00,,0816.1,5.00,0.00,28.7,27.7,00.0,37.7,30.4,04.6,0000.0,0000.74,0002.34,0000.48
2021-11-23 20:55:00,,0816.2,4.99,0.00,28.7,27.7,00.0,37.7,30.4,04.5,0000.0,0000.71,0002.02,0000.48
2021-11-23 20:56:00,,0816.2,5.01,0.00,28.7,27.7,00.0,37.7,30.3,04.6,0000.0,0000.71,0001.77,0000.49
2021-11-23 20:57:00,,0816.2,4.99,0.00,28.7,27.7,00.0,37.7,30.3,04.6,0000.0,0000.74,0001.57,0000.49
2021-11-23 20:58:00,,0816.0,4.99,0.00,28.7,27.7,00.0,37.7,30.3,04.6,0000.0,0000.76,0001.65,0000.49
2021-11-23 20:59:00,,0816.1,5.00,0.00,28.7,27.7,00.0,37.7,30.4,04.6,0000.0,0000.75,0001.57,0000.49
